sat.trackr.live / text

‹ back to catalog

STARLINK-37707

NORAD 69461 · 2026-127U

PAYLOAD ACTIVE UNKNOWN

§ Identity

Operator
Country
US
Launch date
2026-06-08
Launch site
AFETR
Launch vehicle
Mass (kg)
RCS (m²)

Purposes: comms

External: N2YO · Heavens-Above · Gunter

§ Orbital elements

Epoch: 2026-09-20T03:22:40.539072Z

Period
93.85 min
Inclination
53.1570°
Eccentricity
0.0001091
Mean motion
15.34420912 rev/d
Perigee alt
461.9 km
Apogee alt
463.4 km
Semi-major
6,840.8 km
B*
5.4822e-4
RAAN
167.6300°
Arg perigee
99.2209°
Mean anomaly
260.8917°
Rev number
1,613

§ Raw data

STARLINK-377071 69461U 26127U   26263.14074698  .00018204  00000+0  54822-3 0  99902 69461  53.1570 167.6300 0001091  99.2209 260.8917 15.34420912 16139

JSON: /api/v1/satellites/69461 · /tle

For live sub-satellite position, see the globe view (requires WebGL).

§ Visibility from observer

Set your observer location to see the next 7 days of passes ≥ 10°. The values pass through the URL so the page stays shareable.

No JS? Fill the form by hand. The geolocation button needs JavaScript.